2018-100C (43825 NORAD) Tracking and Keplerian Element Data

This shows tracking and keplerian element data for the satellite.

Feedback or suggestion? Click here.




ElementValue
Catalog43825
Name2018-100C
Epoch Orbit10
Epoch Day343.82135301
Epoch Year2018
RAAN205.8624
Inclination3.5188
Eccentricity0.7282772
Argument of Perigee182.0731
Mean Anonmoly103.5277
Mean Motion2.28077321
Decay Rate-7E-07
L11 43825U 18100C 18343.82135301 -.00000070 00000-0 00000+0 0 9991
L22 43825 3.5188 205.8624 7282772 182.0731 103.5277 2.28077321 101

Live tracking and technical data element details for 2018-100C (NORAD 43825). 2018-100C can be tracked NOW for your location showing map with azimuth and elevation plus other details from your city location.

Track the satellite on the map from your city or location and see movement details for azimuth, elevation, latitude, longitude, range, height, and movement on the map or in text.







IsCatalogInMostPopularTable: catalog: 43825, numindb: 1
Update: records affected: 1



GetName: 43825 2018-100C

Hit Count: updated at: Tue, 11 Dec 2018 02:56:53 GMT